Temperature
22 21 22 21 21 21 21 20 20 20 20 20 20 20 20 20 20 20 20 19 19 19 19 19 19 19 19 19 19 19 19 18 18 18 18 18 18 18 17 18 17 17 18
22 21 23 22 21 21 21 20 20 20 20 20 20 20 20 20 20 20 20 19 19 19 19 19 19 19 19 19 19 19 19 18 18 18 18 18 18 17 17 17 17 17 18
22 22 22 22 21 21 21 21 20 20 20 20 20 20 20 20 20 20 20 20 19 19 19 19 19 19 19 19 19 19 19 18 18 18 17 17 17 17 18 17 17 18 17
21 22 22 22 21 21 21 21 21 20 20 20 20 20 20 20 20 20 20 20 20 20 19 19 19 19 19 19 19 19 19 19 18 18 18 17 17 18 18 17 17 17 17
21 21 22 22 22 21 21 21 21 21 21 21 21 20 20 20 20 20 20 20 20 20 20 19 19 19 19 19 19 19 19 19 18 18 17 17 17 18 18 17 17 17 17
21 21 22 22 22 21 21 21 21 21 21 21 21 21 20 20 20 20 20 20 20 19 20 19 19 19 19 19 19 19 19 19 18 18 17 17 17 18 18 17 17 17 17
21 21 21 22 21 21 21 21 21 21 21 21 21 20 20 20 20 20 20 19 19 19 19 19 19 19 19 19 19 19 19 18 17 18 17 17 17 18 18 18 17 17 17
21 21 20 21 21 21 21 21 21 21 21 21 21 20 20 20 20 20 20 19 19 19 19 19 19 19 19 19 19 19 19 18 18 18 17 17 17 18 18 18 17 17 17
22 21 20 20 21 20 20 20 21 21 21 20 20 20 20 20 20 20 19 19 19 19 19 19 19 19 19 19 19 18 18 18 17 18 18 18 18 18 18 18 17 17 17
21 20 19 19 19 19 20 20 20 20 20 20 20 20 20 20 19 19 19 19 19 19 19 19 19 18 18 18 18 18 18 18 17 18 18 18 18 18 18 18 18 17 17
20 20 19 19 19 19 19 19 19 20 20 20 20 20 20 19 18 18 19 18 19 19 19 18 18 18 18 18 18 18 18 17 18 18 18 18 18 18 18 18 18 17 17
20 19 19 19 19 19 18 18 18 18 19 19 18 18 18 18 18 18 18 18 19 19 19 18 18 18 18 17 18 18 17 17 18 18 18 18 18 18 18 18 18 18 17
20 19 19 19 18 19 18 18 18 18 18 18 18 18 18 18 18 18 18 18 18 18 18 18 18 17 17 17 18 17 17 18 18 18 18 18 18 18 18 18 18 18 18
20 19 19 19 19 18 19 18 18 18 18 18 18 18 18 18 18 18 18 18 18 18 17 17 18 17 17 17 17 17 18 18 18 18 18 18 18 18 18 18 18 18 18
19 19 19 19 19 19 19 18 18 18 18 18 18 18 18 18 18 18 18 18 18 18 18 17 17 17 17 17 17 17 17 18 18 18 18 18 18 18 18 18 18 18 18
19 19 19 19 19 19 19 19 18 18 18 18 18 17 18 18 18 18 18 17 18 17 17 17 17 17 17 17 17 17 17 17 17 17 18 18 18 18 18 18 18 18 18
19 19 19 18 18 18 18 18 18 17 17 17 17 17 17 17 17 17 17 17 17 17 17 17 17 17 17 17 17 17 17 17 17 17 17 17 18 18 18 18 18 18 18
18 18 18 17 17 18 18 18 17 17 17 17 17 17 17 17 17 17 17 17 17 17 17 17 17 17 17 17 17 17 17 17 17 17 17 17 17 18 18 18 18 18 18
17 17 17 17 17 17 17 17 17 17 17 16 16 16 16 16 17 17 17 17 17 17 17 17 17 17 17 17 17 17 17 17 17 17 17 17 17 17 17 17 18 18 18
17 17 17 17 17 17 17 17 16 16 16 16 16 16 16 16 16 16 16 16 16 16 16 16 16 16 17 17 17 17 17 17 17 17 17 17 17 17 17 17 17 17 18
17 17 17 17 17 17 16 16 16 16 16 15 16 15 16 16 16 16 16 16 16 16 16 16 16 16 16 16 17 17 17 17 17 17 17 17 18 17 17 17 17 17 17
16 16 16 16 16 16 16 16 16 16 15 15 15 16 16 16 16 16 16 16 16 16 16 16 16 16 16 16 17 18 19 19 17 18 17 17 17 17 17 17 17 17 17
16 16 16 16 16 16 16 16 15 15 15 15 15 15 15 15 15 15 15 15 15 15 15 16 16 16 16 16 16 17 19 20 19 18 17 17 17 17 17 17 16 16 16
16 16 16 16 16 16 16 15 15 15 15 15 15 15 15 15 15 15 15 15 15 15 15 15 15 15 15 16 16 16 17 18 19 20 18 17 16 16 17 17 17 16 16
16 16 16 16 16 16 16 15 15 15 15 14 14 14 14 14 14 14 14 14 15 15 15 15 15 15 15 16 16 16 16 16 17 18 19 18 17 17 16 16 16 16 16
16 16 15 15 15 15 15 15 15 14 14 14 14 14 14 14 14 14 14 14 14 14 14 15 15 15 15 15 16 16 16 16 17 17 18 18 18 17 16 16 16 16 16
Wind_Speed
15 20 23 19 17 16 15 15 16 16 16 16 16 16 15 14 13 13 11 10 9 9 9 9 9 9 10 10 10 11 11 11 11 12 12 11 11 11 11 11 9 14 14
18 22 23 20 18 17 16 16 16 16 16 16 16 15 15 14 13 12 11 10 9 8 8 9 9 9 10 10 11 11 11 10 11 11 11 12 11 10 9 5 5 14 13
20 22 23 20 19 17 17 16 16 16 16 15 15 15 14 13 13 12 11 10 9 8 8 8 8 9 9 9 10 10 10 9 9 9 9 10 12 9 8 7 11 13 12
20 21 21 21 19 18 17 16 16 16 15 15 15 14 13 13 12 11 10 9 8 8 8 8 8 8 8 9 9 9 8 8 8 8 8 8 10 11 8 8 10 10 10
19 20 21 22 20 19 17 16 16 16 15 15 14 14 13 12 11 11 10 9 8 8 8 8 8 8 8 8 8 8 8 7 7 10 5 6 8 11 8 8 9 10 10
19 19 21 21 20 19 18 17 16 15 15 14 13 13 12 12 11 10 10 9 8 8 8 7 7 8 8 8 8 8 7 7 9 7 6 6 7 10 8 8 9 9 10
18 17 21 20 19 18 17 16 16 15 14 13 12 12 11 11 10 10 9 9 8 8 8 7 8 8 8 8 8 8 8 8 10 5 6 5 6 10 8 9 9 10 10
16 16 20 19 18 17 16 15 15 14 13 13 12 11 11 10 10 9 9 9 9 8 8 8 8 8 8 9 9 9 9 10 11 8 8 7 8 9 9 10 11 11 12
15 14 16 18 17 16 15 15 14 13 13 12 12 11 11 10 10 10 10 10 10 10 10 10 10 10 10 10 10 10 10 11 12 9 9 8 12 10 10 11 13 13 14
13 13 14 15 15 15 15 15 13 13 12 12 11 11 11 11 11 11 12 12 12 11 11 12 12 12 12 12 12 12 12 12 15 13 10 9 13 11 12 12 14 15 15
13 12 12 13 13 13 13 14 14 13 13 12 13 13 12 13 14 13 16 13 13 13 13 13 13 14 14 15 16 15 14 14 15 13 11 10 13 12 13 14 15 17 17
14 13 11 11 11 11 9 10 11 12 12 13 12 12 13 12 11 11 8 11 13 15 15 16 16 15 16 14 17 18 14 16 14 11 10 13 13 13 14 15 15 18 19
13 13 12 10 10 10 8 8 8 8 9 11 13 12 12 11 10 11 10 11 14 16 15 15 16 15 14 12 10 12 14 13 11 11 10 16 15 15 16 16 16 17 19
13 13 12 11 9 8 8 7 7 7 7 8 11 13 11 8 9 9 8 9 9 10 10 11 10 12 12 13 13 12 13 12 11 10 9 14 15 16 17 17 17 18 19
11 11 10 10 10 9 8 7 8 8 8 9 10 11 12 9 9 9 8 8 10 10 9 9 10 10 10 11 12 13 13 13 13 12 9 13 16 17 17 17 17 18 19
8 8 8 9 8 8 8 7 7 8 8 10 9 11 12 11 9 8 9 9 9 10 10 9 10 10 10 9 11 12 12 13 13 13 12 12 17 17 17 17 17 17 18
5 5 5 6 7 7 7 7 6 7 8 8 8 10 10 11 10 9 9 9 9 10 10 9 10 9 9 10 11 12 11 12 12 12 13 11 12 17 19 17 16 17 17
3 2 2 2 3 4 5 5 5 6 6 6 7 8 8 10 9 8 8 9 9 9 8 8 8 8 8 9 9 9 9 9 12 12 12 12 11 11 16 19 16 15 16
4 2 2 2 2 2 3 4 4 4 5 6 7 7 8 9 9 7 7 7 8 7 8 8 7 7 7 7 8 9 9 10 9 11 11 12 12 11 11 13 16 16 16
4 4 2 1 1 2 3 3 4 4 5 4 5 6 8 8 9 8 7 8 8 7 7 7 6 6 6 6 8 8 8 8 8 9 10 11 11 12 13 11 11 15 18
5 4 3 2 2 2 3 3 3 3 4 4 5 6 6 6 6 6 7 7 8 8 7 7 7 7 7 6 6 7 8 9 8 7 8 9 9 10 10 9 10 10 11
5 4 3 2 3 3 2 3 3 4 4 3 3 4 4 4 5 5 6 6 6 6 7 7 7 6 7 6 6 6 6 7 6 8 7 8 8 8 9 10 9 8 10
4 4 4 4 3 3 4 3 3 3 3 3 3 3 3 4 4 3 4 5 5 6 6 6 6 9 8 7 7 6 5 5 5 6 6 6 6 6 7 6 8 8 10
3 3 3 3 4 4 4 4 5 5 4 3 3 2 3 3 3 3 3 4 5 5 5 6 7 8 9 8 7 7 7 4 4 4 7 7 7 6 6 6 6 7 8
2 2 2 3 4 4 5 5 5 5 4 3 3 3 3 3 3 3 3 3 4 5 6 7 6 8 9 9 8 7 8 6 7 6 5 6 6 7 6 6 6 6 6
3 4 4 5 5 5 6 6 6 6 6 6 5 5 4 3 3 3 3 3 4 5 5 6 7 8 9 9 8 8 7 7 8 8 8 7 6 6 5 5 6 5 5
Wind_Direction
159 152 150 159 160 158 155 152 152 154 154 155 155 154 153 152 151 150 149 145 139 135 129 122 119 118 117 116 114 113 113 112 113 115 115 113 114 115 118 130 145 113 110
153 149 151 159 161 160 157 153 150 151 153 154 155 156 155 154 154 154 152 150 146 142 135 128 124 120 118 118 118 117 118 119 121 124 128 126 120 118 120 121 53 111 122
150 148 155 159 162 162 159 156 154 154 155 156 157 158 158 158 158 158 158 156 152 147 141 137 132 128 125 123 123 125 126 127 129 141 172 147 128 128 126 113 101 118 126
150 151 158 158 163 164 161 159 158 158 159 159 160 161 161 162 162 163 162 160 160 156 151 146 143 139 136 133 132 133 135 137 145 181 184 130 135 131 141 136 133 135 135
151 154 154 160 165 165 164 163 162 162 163 164 164 165 166 167 168 169 167 167 167 163 161 158 155 151 148 146 145 145 147 152 174 219 135 133 128 133 154 155 153 151 148
155 157 154 163 166 167 167 167 167 167 167 168 168 170 173 175 177 179 177 177 176 174 173 172 169 165 162 160 161 162 164 174 205 196 154 165 137 142 164 171 172 168 164
159 157 156 165 167 169 171 171 171 172 172 173 174 177 179 182 185 188 188 187 186 187 186 185 182 179 177 176 178 180 184 198 231 192 186 183 138 146 177 186 186 185 181
160 160 153 165 169 172 174 175 176 176 178 180 182 184 188 192 196 199 200 199 199 201 201 201 199 196 194 194 195 197 201 221 225 215 209 199 144 166 193 197 196 196 193
163 161 158 168 173 176 178 180 181 182 185 187 190 193 197 203 207 210 211 212 212 212 213 213 212 210 207 207 208 209 212 228 248 228 220 210 155 183 206 209 205 203 201
167 168 167 172 175 181 183 185 189 190 193 196 200 204 208 213 217 219 222 215 221 223 222 222 222 221 219 216 216 216 217 224 237 234 224 196 157 190 211 216 211 209 206
173 175 178 174 179 188 191 181 191 197 201 205 209 210 216 225 223 215 224 212 220 230 232 231 230 230 228 223 221 220 220 232 230 235 226 165 167 198 217 221 217 211 210
177 181 185 181 184 191 197 185 204 209 205 215 219 214 219 228 236 238 211 212 230 236 239 237 237 236 235 232 217 213 226 230 242 231 219 163 184 208 221 224 221 215 212
179 184 186 187 193 197 199 203 211 218 215 219 224 224 228 234 233 236 231 217 226 232 236 231 229 233 233 235 235 218 229 234 231 234 215 173 196 213 221 223 222 218 215
181 187 187 188 192 205 214 215 224 228 227 231 225 228 227 229 236 238 238 239 232 232 232 238 236 235 237 238 236 237 235 235 236 234 217 181 202 216 221 223 222 221 219
180 186 190 193 196 201 213 229 235 242 245 242 243 234 236 237 237 238 240 244 246 245 238 237 242 243 241 240 240 235 239 238 240 236 227 193 207 217 221 223 223 223 222
180 186 193 203 206 212 218 224 242 250 252 257 252 249 243 243 241 242 243 244 247 248 249 248 246 246 245 244 245 244 242 241 240 239 238 213 207 215 221 224 224 224 223
167 171 193 211 219 227 237 240 251 260 261 262 264 259 254 254 250 247 248 247 246 246 247 249 253 252 247 242 241 242 240 240 240 238 240 241 222 211 215 221 225 226 225
116 137 185 234 245 248 253 257 258 265 272 270 271 266 260 261 258 258 256 251 247 245 242 243 247 247 248 249 248 246 241 234 237 235 235 233 239 236 213 211 219 223 226
63 56 43 5 329 297 274 261 265 270 266 269 269 268 264 257 256 254 256 256 250 244 243 245 238 247 247 249 250 242 242 238 237 238 238 236 232 237 239 202 206 217 223
58 51 36 31 359 319 288 263 260 260 263 272 279 279 274 262 256 252 250 250 251 247 242 239 242 241 253 253 257 253 244 242 238 237 238 236 231 230 232 230 216 214 212
62 59 51 28 13 340 311 297 291 282 276 276 275 280 275 271 268 257 254 243 245 245 244 237 235 232 239 240 249 251 243 236 235 239 236 240 229 227 229 227 231 233 210
61 48 39 25 12 339 332 307 293 297 292 296 309 314 312 306 290 265 258 253 241 238 233 234 233 241 234 220 237 247 237 213 217 224 222 224 231 223 222 221 227 229 241
58 40 25 10 356 339 326 314 309 289 282 299 314 315 324 319 315 305 279 270 257 248 241 237 231 232 235 224 225 241 247 232 191 191 211 217 216 225 226 223 226 228 235
49 37 21 360 344 335 322 329 327 322 321 326 312 311 304 302 308 305 295 286 276 268 261 248 231 232 236 233 216 232 258 293 253 199 196 200 205 218 231 238 235 227 232
3 352 341 330 323 323 321 317 309 316 320 318 310 298 293 298 300 308 301 289 280 274 266 262 253 238 234 239 233 219 221 223 241 258 224 198 205 213 215 229 238 239 233
304 305 306 305 302 301 300 301 298 302 302 304 299 298 292 292 293 308 308 303 290 281 271 261 256 244 246 246 247 239 229 224 223 227 235 229 224 217 217 238 242 235 233
Height
1512 1514 1515 1518 1521 1524 1527 1529 1532 1534 1536 1538 1539 1541 1542 1543 1544 1545 1546 1547 1549 1550 1551 1552 1553 1553 1554 1555 1555 1556 1556 1556 1557 1557 1558 1558 1559 1560 1561 1561 1563 1564 1563
1512 1513 1516 1519 1522 1524 1527 1530 1532 1534 1536 1538 1540 1542 1543 1544 1545 1547 1548 1549 1550 1551 1552 1553 1554 1555 1555 1556 1556 1557 1557 1558 1558 1559 1559 1560 1561 1561 1562 1563 1564 1566 1565
1511 1513 1516 1519 1522 1525 1528 1530 1533 1535 1537 1539 1541 1542 1544 1545 1546 1547 1548 1549 1551 1552 1553 1554 1555 1555 1556 1557 1557 1558 1559 1559 1560 1561 1561 1564 1563 1563 1564 1565 1565 1566 1567
1512 1514 1517 1520 1523 1526 1528 1531 1533 1536 1538 1539 1541 1543 1544 1545 1547 1548 1549 1550 1551 1552 1553 1554 1555 1556 1557 1558 1558 1559 1560 1561 1561 1562 1565 1567 1566 1565 1565 1566 1567 1568 1569
1513 1516 1518 1521 1524 1527 1529 1532 1534 1536 1538 1540 1541 1543 1544 1545 1547 1548 1549 1550 1552 1553 1554 1555 1556 1556 1557 1558 1559 1560 1561 1562 1563 1564 1567 1567 1567 1566 1566 1567 1568 1569 1570
1515 1518 1519 1522 1525 1527 1530 1532 1535 1537 1538 1540 1541 1543 1544 1545 1547 1548 1549 1550 1551 1553 1554 1555 1556 1556 1557 1558 1559 1560 1561 1562 1563 1567 1567 1568 1568 1567 1567 1568 1569 1570 1571
1518 1521 1521 1523 1526 1528 1531 1533 1535 1537 1539 1540 1542 1543 1544 1545 1547 1548 1549 1550 1551 1552 1553 1554 1555 1556 1557 1558 1559 1560 1561 1562 1564 1567 1567 1568 1568 1567 1567 1568 1569 1570 1571
1520 1522 1522 1524 1526 1529 1532 1534 1536 1537 1539 1540 1542 1543 1544 1545 1546 1547 1548 1549 1550 1551 1552 1553 1554 1555 1556 1557 1558 1559 1560 1561 1563 1566 1566 1567 1566 1567 1567 1568 1569 1570 1571
1521 1524 1523 1524 1527 1529 1531 1534 1535 1537 1539 1540 1541 1542 1543 1544 1545 1546 1547 1548 1549 1550 1551 1552 1553 1553 1554 1555 1556 1557 1558 1559 1561 1564 1565 1566 1565 1566 1567 1568 1569 1570 1571
1521 1523 1524 1526 1528 1529 1531 1533 1535 1536 1538 1539 1540 1541 1542 1543 1544 1545 1546 1546 1547 1548 1548 1550 1551 1551 1552 1553 1554 1555 1556 1557 1558 1562 1562 1563 1562 1564 1565 1566 1568 1569 1570
1519 1522 1524 1526 1527 1530 1532 1533 1534 1535 1536 1538 1539 1540 1540 1542 1544 1544 1544 1544 1545 1546 1546 1547 1548 1549 1550 1550 1551 1552 1553 1555 1557 1559 1560 1559 1559 1561 1563 1564 1566 1567 1568
1517 1520 1523 1525 1526 1529 1531 1532 1534 1535 1536 1536 1538 1538 1539 1540 1541 1543 1542 1542 1542 1543 1543 1544 1545 1546 1546 1548 1549 1549 1550 1552 1554 1555 1556 1554 1556 1557 1559 1561 1563 1564 1566
1516 1518 1521 1523 1525 1528 1529 1531 1532 1533 1534 1534 1535 1535 1535 1537 1538 1538 1539 1539 1539 1539 1540 1541 1542 1542 1544 1545 1546 1546 1548 1550 1550 1551 1552 1550 1552 1553 1555 1557 1559 1561 1563
1515 1517 1519 1521 1523 1524 1527 1529 1530 1531 1531 1531 1532 1531 1532 1532 1533 1534 1535 1536 1536 1536 1537 1538 1538 1539 1539 1541 1542 1542 1544 1545 1546 1548 1548 1547 1548 1550 1551 1553 1555 1557 1559
1514 1516 1518 1519 1521 1522 1523 1525 1527 1527 1528 1528 1528 1528 1528 1529 1529 1529 1529 1530 1531 1533 1533 1533 1534 1534 1535 1536 1537 1538 1539 1540 1542 1543 1544 1543 1544 1546 1547 1549 1551 1553 1555
1514 1516 1517 1518 1519 1520 1520 1521 1523 1523 1523 1523 1523 1524 1523 1524 1524 1524 1524 1525 1526 1527 1528 1529 1529 1529 1530 1531 1532 1533 1534 1536 1537 1538 1539 1540 1540 1542 1543 1545 1547 1549 1551
1514 1515 1515 1517 1517 1518 1518 1518 1519 1520 1520 1519 1518 1518 1517 1518 1518 1518 1519 1520 1521 1522 1523 1523 1524 1525 1525 1526 1527 1528 1529 1530 1532 1533 1535 1536 1537 1538 1539 1541 1543 1544 1546
1513 1514 1514 1515 1515 1515 1515 1515 1515 1515 1515 1513 1513 1512 1512 1512 1513 1513 1514 1515 1516 1517 1518 1519 1519 1520 1521 1522 1523 1524 1525 1525 1526 1528 1530 1531 1533 1535 1535 1536 1538 1540 1542
1513 1513 1514 1514 1514 1513 1513 1512 1511 1510 1510 1508 1508 1507 1506 1507 1507 1508 1509 1510 1511 1512 1513 1514 1515 1515 1516 1518 1518 1519 1521 1522 1523 1524 1526 1527 1528 1529 1531 1531 1532 1534 1537
1513 1513 1513 1513 1512 1511 1511 1509 1508 1507 1505 1504 1503 1502 1501 1501 1501 1502 1504 1504 1506 1507 1508 1509 1510 1510 1512 1513 1516 1517 1517 1518 1518 1520 1521 1523 1524 1525 1526 1528 1529 1530 1531
1513 1513 1513 1512 1512 1510 1509 1508 1506 1505 1503 1500 1500 1498 1497 1497 1497 1496 1498 1500 1500 1502 1503 1505 1506 1507 1508 1510 1512 1513 1514 1514 1514 1515 1517 1518 1520 1521 1522 1523 1524 1527 1528
1513 1513 1513 1512 1511 1509 1508 1506 1505 1503 1501 1499 1498 1497 1495 1494 1494 1494 1495 1495 1496 1497 1498 1500 1501 1503 1506 1507 1509 1511 1511 1512 1510 1512 1513 1514 1516 1517 1518 1519 1520 1521 1523
1514 1514 1513 1511 1510 1509 1507 1506 1504 1502 1500 1499 1497 1496 1494 1492 1492 1491 1491 1492 1493 1494 1496 1496 1497 1499 1503 1504 1505 1508 1508 1506 1508 1510 1510 1511 1512 1513 1515 1516 1516 1517 1518
1514 1513 1512 1510 1509 1508 1506 1505 1503 1502 1501 1498 1496 1494 1493 1491 1490 1490 1489 1489 1490 1491 1492 1493 1495 1496 1498 1501 1502 1503 1505 1505 1506 1506 1508 1509 1509 1510 1511 1513 1514 1514 1514
1514 1512 1511 1509 1508 1506 1504 1503 1501 1500 1499 1497 1495 1493 1491 1490 1488 1487 1487 1487 1487 1488 1488 1489 1491 1492 1494 1497 1499 1500 1501 1501 1503 1505 1504 1507 1507 1508 1508 1509 1510 1511 1511
1513 1511 1510 1508 1506 1504 1502 1501 1499 1497 1496 1494 1492 1491 1489 1488 1486 1485 1484 1483 1483 1484 1484 1485 1486 1488 1490 1491 1493 1495 1497 1498 1500 1501 1502 1503 1504 1505 1505 1506 1507 1508 1508